Home   Weather   Pointe-Noire   Past weeks

Flag for Congo Past Weather in Pointe-Noire, Congo — Yesterday and Last 2 Weeks

Now
73 °F

Overcast.


Feels Like: 72 °F
Forecast: 74 / 80 °F
Wind: 5 mph from Southeast

Location: Pointe Airport-Noire

Current Time: Sep 1, 2016 at 6:49:25 AM

Latest Report: Sep 1, 2016 at 6:00 AM


Visibility: 4 mi

Pressure: 29.98 "Hg

Humidity: 89%

Dew Point: 70 °F

Location of Pointe-NoireLocation

Past Weather in Pointe-Noire — Graph

°F

Pointe-Noire Temperature Yesterday

Maximum temperature yesterday: 79 °F (at 1:00 PM)
Minimum temperature yesterday: 73 °F (at 1:00 AM)
Average temperature yesterday: 76 °F

High & Low Weather Summary for the Past Weeks

 TemperatureHumidityPressure
High82 °F (Aug 29, 11:00 AM)100% (Aug 22, 4:00 AM)30.07 "Hg (Aug 22, 4:00 AM)
Low70 °F (Aug 26, 4:00 AM)66% (Aug 28, 2:00 PM)29.89 "Hg (Aug 19, 3:00 PM)
Average75 °F86%29.96 "Hg
* Reported Aug 17 5:00 AM — Sep 1 5:00 AM, Pointe-Noire, Weather by CustomWeather, © 2016

Note: Actual official high and low records may vary slightly from our data, if they occured in-between our weather recording intervals... More about our weather records

Advertising

Pointe-Noire Weather History for the Previous 24 Hours

Scroll right to see more
 ConditionsComfort  
Time TempWeatherWind HumidityBarometerVisibility
5:00 AM
Thu, Sep 1
73 °FPartly cloudy.8 mph89%29.95 "Hg4 mi
4:00 AM73 °FPartly cloudy.5 mph89%29.95 "Hg4 mi
3:00 AM73 °FPartly cloudy.7 mph94%29.98 "Hg4 mi
2:00 AM73 °FPartly cloudy.3 mph94%29.98 "Hg4 mi
1:00 AM75 °FMostly cloudy.3 mph89%29.98 "Hg4 mi
12:00 AM75 °FMostly cloudy.7 mph89%29.98 "Hg4 mi
11:00 PM
Wed, Aug 31
75 °FPassing clouds.7 mph89%29.98 "Hg4 mi
10:00 PM75 °FPassing clouds.7 mph89%29.98 "Hg4 mi
9:00 PM75 °FPartly cloudy.7 mph89%29.98 "Hg4 mi
8:00 PM75 °FPassing clouds.6 mph89%29.98 "Hg4 mi
7:00 PM75 °FMostly cloudy.7 mph89%29.95 "Hg4 mi
6:00 PM75 °FOvercast.8 mph89%29.95 "Hg4 mi
5:00 PM75 °FMore clouds than sun.9 mph89%29.95 "Hg5 mi
4:00 PM77 °FMore clouds than sun.9 mph83%29.92 "HgN/A
3:00 PM77 °FMore clouds than sun.10 mph79%29.92 "HgN/A
2:00 PM77 °FMore clouds than sun.8 mph79%29.95 "Hg5 mi
1:00 PM79 °FMore clouds than sun.10 mph79%29.98 "Hg5 mi
12:00 PM77 °FDrizzle. More clouds than sun.14 mph83%30.01 "Hg5 mi
11:00 AM77 °FMore clouds than sun.9 mph83%30.01 "Hg4 mi
10:00 AM77 °FCloudy.8 mph83%30.01 "Hg4 mi
9:00 AM75 °FMostly cloudy.7 mph89%30.01 "Hg4 mi
8:00 AM75 °FFog.5 mph89%30.01 "Hg2 mi
7:00 AM75 °FFog.2 mph89%30.01 "Hg2 mi
6:00 AM73 °FOvercast.No wind94%29.98 "Hg4 mi
Weather by CustomWeather, © 2016

See weather overviewHow to use our weather pages